IU7URP-13 Weather Reports


time (UTC)temp
C
wind
direction
speed
KPH
gust
KPH
rain 1hr
cm
rain 24hr
cm
rain mn
cm
humidity
%
barometer
mb
20260508014037 17 0.0 0.0 0.00 0.00 0.00 99 1014.9
20260508012035 17 0.0 0.0 0.00 0.00 0.00 99 1015.4
20260508010034 16 0.0 0.0 0.00 0.00 0.00 99 1015.4
20260508004033 16 0.0 0.0 0.00 0.00 0.00 99 1015.7
20260508002031 16 0.0 0.0 0.00 0.00 0.00 99 1016.1
20260508000030 16 0.0 0.0 0.00 0.00 0.00 99 1016.1
20260507234029 16 0.0 0.0 0.00 0.00 0.00 99 1016.3
20260507232027 16 0.0 0.0 0.00 0.00 0.00 99 1016.5
20260507230025 16 0.0 0.0 0.00 0.00 0.00 99 1016.9
20260507224024 16 0.0 0.0 0.00 0.00 0.00 99 1017.2
20260507222023 16 0.0 0.0 0.00 0.00 0.00 99 1017.4
20260507220022 16 0.0 0.0 0.00 0.00 0.00 99 1017.4
20260507214020 16 0.0 0.0 0.00 0.00 0.00 99 1017.3
20260507212019 16 0.0 0.0 0.00 0.00 0.00 99 1017.4
20260507210018 16 0.0 0.0 0.00 0.00 0.00 99 1017.5
20260507204016 16 0.0 0.0 0.00 0.00 0.00 99 1017.4
20260507202015 16 0.0 0.0 0.00 0.00 0.00 99 1017.6
20260507200014 16 0.0 0.0 0.00 0.00 0.00 99 1017.5
20260507194013 16 0.0 0.0 0.00 0.00 0.00 99 1017.8
20260507192011 16 0.0 0.0 0.00 0.00 0.00 99 1017.6
20260507190010 16 0.0 0.0 0.00 0.00 0.00 99 1017.7
20260507184009 16 0.0 0.0 0.00 0.00 0.00 99 1017.6
20260507182007 16 0.0 0.0 0.00 0.00 0.00 99 1017.7
20260507180006 16 0.0 0.0 0.00 0.00 0.00 99 1017.3
20260507174004 17 0.0 0.0 0.00 0.00 0.00 99 1017.5
20260507172003 17 0.0 0.0 0.00 0.00 0.00 99 1017.5
20260507170002 18 0.0 0.0 0.00 0.00 0.00 99 1017.5
20260507164000 19 0.0 0.0 0.00 0.00 0.00 82 1017.2
20260507161959 20 0.0 0.0 0.00 0.00 0.00 52 1016.9
20260507155957 21 0.0 0.0 0.00 0.00 0.00 43 1016.9
20260507153956 21 0.0 0.0 0.00 0.00 0.00 31 1017.0
20260507151955 21 0.0 0.0 0.00 0.00 0.00 33 1017.3
20260507145954 22 0.0 0.0 0.00 0.00 0.00 34 1017.4
20260507143952 21 0.0 0.0 0.00 0.00 0.00 37 1017.7
20260507141951 21 0.0 0.0 0.00 0.00 0.00 41 1017.8
20260507135950 21 0.0 0.0 0.00 0.00 0.00 35 1017.8
20260507133948 22 0.0 0.0 0.00 0.00 0.00 33 1017.8
20260507131947 21 0.0 0.0 0.00 0.00 0.00 32 1018.0
20260507125946 23 0.0 0.0 0.00 0.00 0.00 28 1018.0
20260507123944 22 0.0 0.0 0.00 0.00 0.00 32 1018.2
20260507121943 21 0.0 0.0 0.00 0.00 0.00 33 1018.6
20260507115942 21 0.0 0.0 0.00 0.00 0.00 37 1018.8
20260507113940 21 0.0 0.0 0.00 0.00 0.00 61 1018.8
20260507111939 18 0.0 0.0 0.00 0.00 0.00 99 1018.5
20260507105938 19 0.0 0.0 0.00 0.00 0.00 99 1018.5
20260507103936 19 0.0 0.0 0.00 0.00 0.00 99 1019.0
20260507101935 19 0.0 0.0 0.00 0.00 0.00 83 1018.8
20260507095934 20 0.0 0.0 0.00 0.00 0.00 60 1019.1
20260507093933 19 0.0 0.0 0.00 0.00 0.00 99 1019.6
20260507091931 18 0.0 0.0 0.00 0.00 0.00 99 1020.5
20260507085930 20 0.0 0.0 0.00 0.00 0.00 99 1021.0
20260507083929 19 0.0 0.0 0.00 0.00 0.00 99 1021.2
20260507081924 18 0.0 0.0 0.00 0.00 0.00 99 1021.3
20260507075904 18 0.0 0.0 0.00 0.00 0.00 99 1020.9
20260507073855 18 0.0 0.0 0.00 0.00 0.00 99 1020.9
20260507071854 18 0.0 0.0 0.00 0.00 0.00 99 1020.9
20260507065853 17 0.0 0.0 0.00 0.00 0.00 99 1020.8
20260507063852 17 0.0 0.0 0.00 0.00 0.00 99 1021.1
20260507061850 17 0.0 0.0 0.00 0.00 0.00 99 1020.9
20260507055849 16 0.0 0.0 0.00 0.00 0.00 99 1020.6
20260507053848 16 0.0 0.0 0.00 0.00 0.00 99 1020.1
20260507051847 15 0.0 0.0 0.00 0.00 0.00 99 1019.5
20260507045845 16 0.0 0.0 0.00 0.00 0.00 99 1020.2
20260507043843 15 0.0 0.0 0.00 0.00 0.00 99 1020.2
20260507041842 16 0.0 0.0 0.00 0.00 0.00 99 1020.0
20260507035841 15 0.0 0.0 0.00 0.00 0.00 99 1019.7
20260507033840 15 0.0 0.0 0.00 0.00 0.00 99 1019.7
20260507031838 15 0.0 0.0 0.00 0.00 0.00 99 1019.8
20260507025837 16 0.0 0.0 0.00 0.00 0.00 99 1019.7
20260507023835 15 0.0 0.0 0.00 0.00 0.00 99 1019.6
20260507021834 15 0.0 0.0 0.00 0.00 0.00 99 1019.2
20260507015833 15 0.0 0.0 0.00 0.00 0.00 99 1019.1